This is the latest recevied weather packets stored in our database for station/object Kirchdorf. If no packets are shown the sender has not sent any weather packets the latest 10 day(s).
| Time | Temp. | Humidity | Pressure | Rain* | Wind** | Luminosity | Snow |
|---|---|---|---|---|---|---|---|
| 1777449731 | 11.67° C | 62% | 1020.5 hPa | 0 mm | - | - | - |
| 1777447931 | 10.56° C | 63% | 1020.3 hPa | 0 mm | - | - | - |
| 1777446130 | 10° C | 64% | 1020.1 hPa | 0 mm | - | - | - |
| 1777444331 | 9.44° C | 66% | 1019.9 hPa | 0 mm | - | - | - |
| 1777442531 | 9.44° C | 67% | 1019.7 hPa | 0 mm | - | - | - |
| 1777440731 | 8.89° C | 67% | 1019.5 hPa | 0 mm | - | - | - |
| 1777438931 | 8.89° C | 66% | 1019.1 hPa | 0 mm | - | - | - |
| 1777437132 | 9.44° C | 65% | 1018.9 hPa | 0 mm | - | - | - |
| 1777435331 | 9.44° C | 63% | 1018.8 hPa | 0 mm | - | - | - |
| 1777433531 | 10° C | 62% | 1018.4 hPa | 0 mm | - | - | - |
| 1777431732 | 10.56° C | 61% | 1018.1 hPa | 0 mm | - | - | - |
| 1777429932 | 10.56° C | 60% | 1018.1 hPa | 0 mm | - | - | - |
| 1777428132 | 11.11° C | 60% | 1018.1 hPa | 0 mm | - | - | - |
| 1777426337 | 11.67° C | 59% | 1017.9 hPa | 0 mm | - | - | - |
| 1777424532 | 11.67° C | 59% | 1018.1 hPa | 0 mm | - | - | - |
| 1777422731 | 11.67° C | 59% | 1018.2 hPa | 0 mm | - | - | - |
| 1777420930 | 11.67° C | 58% | 1018.4 hPa | 0 mm | - | - | - |
| 1777419129 | 11.67° C | 59% | 1018.5 hPa | 0 mm | - | - | - |
| 1777417329 | 12.22° C | 57% | 1018.7 hPa | 0 mm | - | - | - |
| 1777415530 | 12.78° C | 55% | 1018.6 hPa | 0 mm | - | - | - |
| 1777411929 | 13.33° C | 54% | 1018.4 hPa | 0 mm | - | - | - |
| 1777410130 | 13.33° C | 54% | 1018.3 hPa | 0 mm | - | - | - |
| 1777408330 | 13.89° C | 54% | 1018.1 hPa | 0 mm | - | - | - |
| 1777406537 | 13.89° C | 54% | 1018.3 hPa | 0 mm | - | - | - |
| 1777404730 | 14.44° C | 54% | 1018.1 hPa | 0 mm | - | - | - |
* Rain since midnight (hover to see other rain measurements)
** Current wind speed in m/s (hover to see current wind gust speed)